Kezdőlap
METAR-TAF:

METAR-TAF

Repülőterek :

Ankeny Regional Airport

Ankeny, Iowa, Amerikai Egyesült Államok

földrajzi szélesség: 41-41-24N, földrajzi hosszúság: 093-33-57W, magasság: 275 m

Jelenlegi meteorológiai megfigyelések

A jelentés 10 perccel ezelõtt készült, 13:55 UTC
Szélcsend
Hőmérséklet -2°C
Páratartalom 93%
Légköri nyomás 1028 hPa
Látótávolság: 16.1 km
Borult 10000 lábon

METAR: KIKV 041355Z AUTO 00000KT 10SM OVC100 M02/M03 A3037 RMK AO2

Idő: 08:05 (14:05 UTC)


TAF: hiányzik

Meteorológiai megfigyelések és előrejelzések több, mint 4000 repülőtéren (METAR és TAF jelentéseket).

A térképen piros és sárga pontok jelzik az elérhető meteorológiai állomásokat.

Mozgassa az egeret a pont fölött, hogy megjelenjen az állomás neve.

Azután kattintson az időjárási megfigyelések és előrejelzések megtekintéséhez.

A térkép megváltoztatása: kattintson a fekete keresztel jelölt zöld gombra ráközelítéshez, a vonallal jelölt zöld gombra távolításhoz, vagy a zöld nyilakra a szomszédos térképek eléréséhez.


METAR-TAF: